When you browse on this site, cookies collect data to enhance your experience and personalize the content and advertising you see.
Visit our Privacy Policy to learn more. By continuing to use the site, you agree to this use of cookies and data.

Previsão horária em Luanda

Hoje, 8 Julho, Quarta-feira

Tempo Temperatura Precipitação Vento Pressão Humidade
00:00 +20°C° 0 mm 2 m/s 753 mmHg 96%
01:00 +20°C° 0 mm 2 m/s 753 mmHg 96%
02:00 +20°C° 0 mm 2 m/s 753 mmHg 94%
03:00 +21°C° 0 mm 2 m/s 753 mmHg 91%
04:00 +21°C° 0 mm 3 m/s 753 mmHg 89%
05:00 +21°C° 0 mm 2 m/s 753 mmHg 85%
06:00 +23°C° 0 mm 2 m/s 754 mmHg 82%
07:00 +23°C° 0 mm 1 m/s 754 mmHg 80%
08:00 +24°C° 0 mm 1 m/s 754 mmHg 74%
09:00 +26°C° 0 mm 1 m/s 754 mmHg 68%
10:00 +27°C° 0 mm 1 m/s 754 mmHg 63%
11:00 +29°C° 0 mm 2 m/s 754 mmHg 56%
12:00 +31°C° 0 mm 3 m/s 753 mmHg 48%
13:00 +34°C° 0 mm 4 m/s 753 mmHg 41%
14:00 +33°C° 0 mm 4 m/s 752 mmHg 47%
15:00 +30°C° 0 mm 5 m/s 752 mmHg 52%
16:00 +29°C° 0 mm 5 m/s 751 mmHg 58%
17:00 +27°C° 0 mm 5 m/s 751 mmHg 67%
18:00 +25°C° 0 mm 5 m/s 751 mmHg 75%
19:00 +22°C° 0 mm 5 m/s 752 mmHg 84%
20:00 +22°C° 0 mm 4 m/s 752 mmHg 87%
21:00 +22°C° 0 mm 4 m/s 753 mmHg 89%
22:00 +21°C° 0 mm 3 m/s 754 mmHg 92%
23:00 +21°C° 0 mm 3 m/s 754 mmHg 93%

Amanhã, 9 Julho, Quinta-feira

Tempo Temperatura Precipitação Vento Pressão Humidade
00:00 +20°C° 0 mm 3 m/s 754 mmHg 94%
01:00 +20°C° 0 mm 2 m/s 754 mmHg 95%
02:00 +20°C° 0 mm 2 m/s 753 mmHg 95%
03:00 +19°C° 0 mm 2 m/s 753 mmHg 95%
04:00 +20°C° 0 mm 1 m/s 753 mmHg 95%
05:00 +20°C° 0 mm 1 m/s 753 mmHg 94%
06:00 +21°C° 0 mm 1 m/s 754 mmHg 93%
07:00 +20°C° 0 mm 2 m/s 754 mmHg 92%
08:00 +24°C° 0 mm 1 m/s 754 mmHg 78%
09:00 +26°C° 0 mm 1 m/s 755 mmHg 64%
10:00 +29°C° 0 mm 1 m/s 755 mmHg 51%
11:00 +30°C° 0 mm 2 m/s 754 mmHg 47%
12:00 +33°C° 0 mm 4 m/s 754 mmHg 43%
13:00 +34°C° 0 mm 5 m/s 753 mmHg 39%
14:00 +33°C° 0 mm 6 m/s 753 mmHg 43%
15:00 +32°C° 0 mm 6 m/s 752 mmHg 48%
16:00 +30°C° 0 mm 7 m/s 752 mmHg 52%
17:00 +28°C° 0 mm 6 m/s 752 mmHg 62%
18:00 +26°C° 0 mm 6 m/s 753 mmHg 72%
19:00 +23°C° 0 mm 5 m/s 753 mmHg 83%
20:00 +22°C° 0 mm 5 m/s 754 mmHg 86%
21:00 +21°C° 0 mm 5 m/s 754 mmHg 90%
22:00 +21°C° 0 mm 5 m/s 754 mmHg 94%
23:00 +20°C° 0 mm 4 m/s 754 mmHg 94%

Depois de amanhã, 10 Julho, Sexta-feira

Tempo Temperatura Precipitação Vento Pressão Humidade
00:00 +20°C° 0 mm 3 m/s 754 mmHg 95%
01:00 +20°C° 0 mm 2 m/s 754 mmHg 96%
02:00 +19°C° 0 mm 2 m/s 754 mmHg 96%
03:00 +20°C° 0 mm 1 m/s 754 mmHg 96%
04:00 +20°C° 0 mm 1 m/s 754 mmHg 97%
05:00 +20°C° 0 mm 1 m/s 754 mmHg 96%
06:00 +20°C° 0 mm 1 m/s 754 mmHg 96%
07:00 +21°C° 0 mm 1 m/s 755 mmHg 95%
08:00 +23°C° 0 mm 1 m/s 755 mmHg 83%
09:00 +25°C° 0 mm 1 m/s 755 mmHg 71%
10:00 +28°C° 0 mm 1 m/s 755 mmHg 59%
11:00 +29°C° 0 mm 2 m/s 755 mmHg 53%
12:00 +30°C° 0 mm 3 m/s 754 mmHg 48%
13:00 +33°C° 0 mm 5 m/s 754 mmHg 42%
14:00 +32°C° 0 mm 5 m/s 753 mmHg 47%
15:00 +30°C° 0 mm 6 m/s 753 mmHg 52%
16:00 +29°C° 0 mm 7 m/s 752 mmHg 57%
17:00 +27°C° 0 mm 6 m/s 753 mmHg 67%
18:00 +24°C° 0 mm 6 m/s 753 mmHg 76%
19:00 +22°C° 0 mm 5 m/s 754 mmHg 86%
20:00 +21°C° 0 mm 5 m/s 754 mmHg 89%
21:00 +21°C° 0 mm 5 m/s 754 mmHg 91%
22:00 +20°C° 0 mm 4 m/s 755 mmHg 94%
23:00 +20°C° 0 mm 3 m/s 755 mmHg 95%

11 Julho, Sábado

Tempo Temperatura Precipitação Vento Pressão Humidade
00:00 +19°C° 0 mm 3 m/s 755 mmHg 96%
01:00 +19°C° 0 mm 2 m/s 754 mmHg 96%
02:00 +19°C° 0 mm 1 m/s 754 mmHg 97%
03:00 +19°C° 0 mm 1 m/s 754 mmHg 97%
04:00 +17°C° 0 mm 0 m/s 754 mmHg 98%
05:00 +19°C° 0 mm 1 m/s 754 mmHg 97%
06:00 +20°C° 0 mm 1 m/s 754 mmHg 96%
07:00 +21°C° 0 mm 1 m/s 755 mmHg 95%
08:00 +22°C° 0 mm 1 m/s 755 mmHg 85%
09:00 +24°C° 0 mm 1 m/s 756 mmHg 75%
10:00 +25°C° 0 mm 1 m/s 756 mmHg 65%
11:00 +27°C° 0 mm 1 m/s 755 mmHg 59%
12:00 +28°C° 0 mm 2 m/s 755 mmHg 53%
13:00 +30°C° 0 mm 2 m/s 754 mmHg 47%
14:00 +29°C° 0 mm 3 m/s 753 mmHg 51%
15:00 +28°C° 0 mm 4 m/s 753 mmHg 54%
16:00 +27°C° 0 mm 5 m/s 752 mmHg 58%
17:00 +26°C° 0 mm 5 m/s 753 mmHg 66%
18:00 +23°C° 0 mm 5 m/s 753 mmHg 73%
19:00 +22°C° 0 mm 5 m/s 753 mmHg 80%
20:00 +21°C° 0 mm 4 m/s 754 mmHg 84%
21:00 +20°C° 0 mm 3 m/s 754 mmHg 87%
22:00 +19°C° 0 mm 2 m/s 755 mmHg 91%
23:00 +19°C° 0 mm 2 m/s 755 mmHg 92%

12 Julho, Domingo

Tempo Temperatura Precipitação Vento Pressão Humidade
00:00 +19°C° 0 mm 2 m/s 755 mmHg 93%
01:00 +19°C° 0 mm 1 m/s 755 mmHg 94%
02:00 +19°C° 0 mm 1 m/s 755 mmHg 94%
03:00 +19°C° 0 mm 1 m/s 755 mmHg 94%
04:00 +19°C° 0 mm 1 m/s 755 mmHg 95%
05:00 +19°C° 0 mm 1 m/s 755 mmHg 93%
06:00 +19°C° 0 mm 2 m/s 755 mmHg 92%
07:00 +19°C° 0 mm 2 m/s 756 mmHg 90%
08:00 +23°C° 0 mm 1 m/s 756 mmHg 79%
09:00 +25°C° 0 mm 1 m/s 756 mmHg 67%
10:00 +25°C° 0 mm 0 m/s 756 mmHg 55%
11:00 +28°C° 0 mm 2 m/s 755 mmHg 53%
12:00 +29°C° 0 mm 3 m/s 755 mmHg 50%
13:00 +30°C° 0 mm 4 m/s 754 mmHg 48%
14:00 +29°C° 0 mm 5 m/s 754 mmHg 51%
15:00 +28°C° 0 mm 5 m/s 753 mmHg 54%
16:00 +27°C° 0 mm 5 m/s 752 mmHg 58%
17:00 +25°C° 0 mm 5 m/s 753 mmHg 65%
18:00 +23°C° 0 mm 5 m/s 754 mmHg 72%
19:00 +22°C° 0 mm 4 m/s 754 mmHg 80%
20:00 +21°C° 0 mm 4 m/s 755 mmHg 83%
21:00 +21°C° 0 mm 3 m/s 755 mmHg 86%
22:00 +20°C° 0 mm 3 m/s 756 mmHg 89%
23:00 +20°C° 0 mm 2 m/s 756 mmHg 87%

13 Julho, Segunda-feira

Tempo Temperatura Precipitação Vento Pressão Humidade
00:00 +21°C° 0 mm 2 m/s 756 mmHg 86%
01:00 +21°C° 0 mm 2 m/s 756 mmHg 85%
02:00 +21°C° 0 mm 2 m/s 756 mmHg 83%
03:00 +21°C° 0 mm 2 m/s 755 mmHg 80%
04:00 +23°C° 0 mm 2 m/s 755 mmHg 78%
05:00 +23°C° 0 mm 2 m/s 755 mmHg 79%
06:00 +21°C° 0 mm 2 m/s 755 mmHg 81%
07:00 +21°C° 0 mm 2 m/s 755 mmHg 82%
08:00 +24°C° 0 mm 1 m/s 755 mmHg 72%
09:00 +26°C° 0 mm 1 m/s 755 mmHg 62%
10:00 +26°C° 0 mm 0 m/s 755 mmHg 52%
11:00 +29°C° 0 mm 2 m/s 754 mmHg 49%
12:00 +30°C° 0 mm 3 m/s 754 mmHg 47%
13:00 +32°C° 0 mm 4 m/s 753 mmHg 45%
14:00 +30°C° 0 mm 5 m/s 752 mmHg 50%
15:00 +28°C° 0 mm 6 m/s 752 mmHg 55%
16:00 +27°C° 0 mm 6 m/s 751 mmHg 59%
17:00 +26°C° 0 mm 6 m/s 752 mmHg 67%
18:00 +23°C° 0 mm 5 m/s 752 mmHg 75%
19:00 +22°C° 0 mm 4 m/s 752 mmHg 83%
20:00 +21°C° 0 mm 3 m/s 753 mmHg 86%
21:00 +21°C° 0 mm 3 m/s 754 mmHg 89%
22:00 +20°C° 0 mm 2 m/s 754 mmHg 92%
23:00 +21°C° 0 mm 1 m/s 754 mmHg 91%
Mostrar mais